CAPE
999 1099 1338 1592 1927 2139 2334 2421 2496 2830 2913 3117 2989 2980 3014 3125 3256 3194 3262 3262 3257 3317 3284 3371 3364 3326 3248 3308 3104 2989 2918 2926 2930 2874 2896 2895 2885 2840 2862 2862 2920 2952 2957 2956 3043 3014 2878 2769 2890 3150 3236 3082 3105 3034 3021 2996 3181 2994 2903 2998 2937 2838 2857 2625 2747 2672 2725 2766 2335 2302 2556 2798 2379 2390 2202 2161 2280 1805 2089 2272 1980 1816 2062 2057 1831
985 1181 1362 1554 1968 2223 2198 2652 2890 2976 2987 3032 3013 3029 3152 3108 3220 3245 3304 3283 3281 3237 3305 3297 3219 3227 3222 3216 3173 3056 3022 2834 2696 2841 2824 2849 2798 2798 2851 2939 2894 2905 2948 3014 3105 2946 2745 2830 2682 2684 2898 3079 2998 2745 3046 3154 2998 2858 2858 2809 2890 2877 2660 2820 2590 2662 2834 2782 2499 2436 2516 2525 2514 2325 2296 2191 2237 1944 2078 2367 2149 1848 2077 2042 1757
1095 1167 1329 1702 1895 2252 2376 2830 2885 2840 3041 2912 3009 3122 3210 3223 3170 3174 3184 3292 3287 3192 3279 3176 3092 3212 3225 3214 3221 3322 3250 3110 3094 2952 2878 2950 2935 2835 2875 2843 2902 2833 2899 2926 3004 2938 2575 2748 2558 2620 3094 2695 2655 2587 2904 2782 2848 2656 2874 2953 2986 2954 2562 2816 2594 2472 2589 2470 2439 2452 2367 2295 2362 2166 2128 2070 1801 1933 2268 2426 2445 2315 1885 1876 1966
1118 1172 1407 1704 1940 2080 2309 2830 2796 2854 3022 3052 3178 3174 3244 3262 3224 3261 3245 3254 3257 3191 3184 3060 3197 3179 3145 3110 3145 3171 3054 2906 2806 2868 2962 2942 2893 2863 2861 2771 2826 2957 2927 3049 2911 3090 2696 3023 2434 2759 2899 2887 2763 2682 2724 2670 2532 2693 2717 2660 2664 2637 2628 2785 2675 2640 2576 2532 2584 2527 2505 2230 2258 2270 2244 2167 2171 2117 2300 2315 2403 1885 1899 2022 1839
1090 1234 1458 1736 1948 2095 2863 2758 2820 2890 3028 3093 3096 3112 3133 3136 3196 3222 3258 3213 3264 3181 3184 3206 3174 3199 3148 3033 2974 2862 2788 2809 2827 2858 2934 3042 2751 2462 2588 2726 2775 2504 2956 2428 2773 2610 2698 2713 2836 2821 2476 2468 2582 2471 2514 2496 2481 2446 2567 2455 2591 2447 2392 2603 2578 2438 2424 2564 2678 2201 2052 2349 2446 2288 2195 2168 2406 2537 2504 2496 2452 2144 2209 1976 1978
1152 1363 1571 1837 2004 2315 2963 2866 2797 2846 3011 2992 3045 3047 3108 3249 3229 3240 3162 3198 3232 3344 3246 3250 3252 3222 3046 3012 3011 3010 3006 2853 2837 2978 3078 2812 2675 2450 2535 2368 2368 2457 2476 2670 2616 2642 2443 2392 2578 2668 2426 2546 2335 2298 2536 2450 2384 2091 2216 2420 2291 2292 2123 2305 2452 2562 2912 2746 2362 1981 1998 2061 2013 2190 2361 2240 2143 2260 2464 2406 2070 2136 2125 2009 1980
1446 1566 1643 1851 2097 2586 2855 2913 2714 2818 2963 3069 3012 3064 3172 3236 3393 3398 3256 3221 3361 3266 3232 3280 3189 3213 3080 3026 2904 2870 2835 2912 2926 2876 2606 2539 2515 2485 2506 2441 2491 2598 2638 2692 2536 2362 2251 2575 2418 2405 2108 2378 2335 2356 2410 2402 2008 1828 1956 2014 2085 2129 2209 2194 2484 2484 2598 1870 1731 1727 1918 1904 1998 2392 2422 2255 1942 2294 2360 2150 2267 2215 2112 2128 1930
1541 1603 1743 1955 2245 2734 2903 2912 2835 2881 2950 2904 3041 3169 3224 3292 3304 3245 3182 3262 3211 3045 3252 3228 3125 2993 3015 3092 3004 2932 2861 2568 2656 2625 2378 2493 2416 2458 2442 2402 2565 2537 2369 2528 2339 2406 2438 2465 2470 2228 1966 2029 2188 2150 2164 2263 2002 1991 1947 2041 1993 2246 2238 2432 2204 2474 2358 1759 1814 1848 2021 2108 2168 2266 2343 2297 2262 2215 2176 1984 2038 2129 2054 1996 1897
1564 1698 1916 2123 2335 2763 2930 2794 2801 2802 2917 2923 3000 3148 3211 3194 3173 3059 3007 3002 2969 2955 2940 3176 3160 3054 3042 2951 2975 2879 2574 2511 2622 2573 2667 2464 2444 2443 2485 2520 2534 2616 2510 2416 2418 2240 2349 2302 2363 1997 1947 1959 1797 1875 1927 2033 1997 1959 1774 2064 2043 2115 2074 2414 2607 2306 1853 1783 1833 1887 1954 2037 2041 2048 2102 2025 2058 2101 1967 2054 2008 2024 1958 1806 1757
1754 1919 2032 2136 2373 2902 2774 2783 2785 2726 2714 2912 3076 3092 3098 3062 2987 2938 2949 2902 2873 2984 3034 3016 2982 2935 2904 2915 2901 2892 2744 2554 2348 2564 2653 2450 2499 2649 2439 2469 2423 2678 2662 2741 2438 2412 2330 2366 1914 1796 2030 2116 1948 1987 1933 2184 2079 1866 1856 1855 1750 1964 2163 2446 2451 2477 1790 2055 2211 2471 2717 2131 1997 1888 2068 2173 2177 2303 2263 2140 1911 1877 1970 1931 2047
1886 1989 2034 2170 2448 2765 2717 2659 2633 2680 2889 2998 3030 2918 2954 2944 2891 2840 2874 2914 2875 2872 2984 2988 2882 2918 2712 2510 2590 2743 2417 2477 2593 2448 2455 2690 2522 2555 2638 2385 2271 2648 2583 2514 2361 2224 2344 2244 2221 2077 2037 2061 2046 1998 2075 2064 1971 1909 1758 1838 1858 1906 2545 2501 1981 1806 1892 1946 2030 2297 2442 2330 1794 2101 2139 2207 2208 2072 2049 1866 1927 1973 1937 2027 1996
1897 1997 2126 2281 2692 2697 2530 2504 2745 2766 2840 2869 2837 2782 2868 2776 2636 2616 2702 2817 2924 2827 2904 2957 2932 2843 2507 2683 2698 2684 2555 2533 2685 2554 2506 2469 2557 2576 2507 2300 2301 2180 2100 2526 2584 2571 2490 2208 2340 2314 2145 2274 2161 2058 2013 2241 2025 1997 2098 2011 2292 2408 2623 2343 1649 1659 1722 1919 2170 1964 1771 1926 2166 2127 2222 2052 2030 2005 1961 1985 1927 1968 2007 1968 2002
1893 2036 2225 2417 2282 2572 2494 2327 2574 2752 2717 2615 2727 2840 2805 2610 2481 2536 2727 2811 2810 2701 2777 2826 2798 2697 2686 2751 2776 2621 2435 2313 2456 2620 2402 2368 2624 2329 2180 2214 2208 2317 2744 2427 2252 2461 2315 2300 1942 2333 2404 2295 2274 1872 1973 1915 2018 1956 2044 2422 2435 2476 2534 2195 1561 1682 1756 1792 1849 1827 1900 2162 2229 2258 2154 2224 2164 2039 1891 1955 1962 2167 2129 2102 2042
1838 2059 2295 2061 2104 2491 2507 2403 2245 2508 2638 2627 2720 2763 2588 2478 2400 2433 2739 2808 2797 2771 2746 2650 2567 2513 2580 2691 2635 2407 2500 2569 2589 2630 2302 2255 2189 2341 2311 2298 2453 2627 2822 1966 2311 2436 2197 2084 2330 2143 2224 2288 2263 2146 2123 2015 2032 1997 2383 2421 2501 2491 2451 2339 2058 1819 2052 2162 2396 2004 2219 2625 2509 2399 2241 2166 2018 1978 2010 2063 2134 2125 2043 2033 2002
1800 2082 2284 2058 2118 2216 2546 2542 2347 2588 2556 2570 2754 2644 2444 2407 2453 2399 2713 2755 2826 2802 2769 2403 2339 2321 2506 2582 2298 2538 2429 2253 2348 2406 2295 2407 2394 2409 2399 2327 2401 2553 2414 1914 1999 2393 2406 2262 2311 2107 1994 2154 2409 2417 2222 2192 1958 1970 1918 2330 2624 2514 2250 1652 1632 1776 1976 2177 2203 1896 2068 2394 2298 2365 2151 1991 1975 2020 2068 2062 2045 2074 2100 2039 2068
1746 2123 2265 2018 2025 2145 2224 2240 2300 2498 2322 2545 2681 2532 2368 2461 2444 2291 2529 2757 2833 2651 2552 2363 2364 2222 2268 2534 2501 2452 2357 2186 2427 2390 2360 2275 2107 2235 2088 2596 2315 2313 2409 2161 2128 2246 2198 2251 2265 2129 2169 2346 2391 2204 2305 2104 2157 2121 2120 2184 2576 2497 2345 1741 1593 1652 1675 1856 2105 2306 2163 2264 2260 2150 2114 2056 2042 1948 1931 1986 1954 2013 2024 2074 2076
1892 2130 2181 1929 1898 1868 1870 1690 1889 2140 2401 2594 2589 2442 2378 2414 2403 2420 2506 2588 2598 2532 2448 2488 2378 2558 2366 2616 2382 2262 2458 2311 2312 2596 2479 2240 2333 2119 2138 2322 2063 2494 2456 2032 2255 2465 2124 2376 2227 2032 2148 1938 1970 2049 1962 2281 2326 2165 2185 2530 2559 2538 2368 1764 1592 1651 2074 2376 2143 2058 2357 2422 2375 2009 1981 1871 1826 1907 1995 2007 2010 1975 2059 2053 1988
1938 2037 2093 2013 2019 2038 1911 1940 1950 2067 2217 2555 2533 2365 2414 2444 2456 2489 2594 2541 2518 2412 2490 2553 2345 2520 2206 2500 2355 2340 2316 2342 2121 2428 2485 2151 1979 1949 2059 2375 2495 2499 2468 2166 2401 2145 2339 2307 2040 2281 2105 2208 2172 2328 2339 2123 2127 2112 2002 2388 2639 2494 2315 1883 1565 1954 2253 2264 2118 2526 2333 2180 2273 1870 1902 1899 1930 1993 2013 1976 1949 1837 1687 1808 1918
1807 1949 2021 1872 2079 2153 2037 1934 1974 2038 2086 2027 2127 2542 2382 2423 2359 2497 2463 2550 2514 2503 2518 2546 2638 2393 2398 2314 2405 2188 2388 2370 2315 2118 2167 2080 1697 2054 2299 2569 2533 2364 2452 2314 2320 2192 2031 2210 2181 2300 2042 2035 2308 1982 1996 1985 2072 2224 2233 2576 2606 2506 2354 1778 1573 1663 1851 1888 1981 1974 2418 2494 2261 2132 1972 1986 1985 2028 2014 2015 1939 1890 1910 2001 1999
1757 1895 1931 1939 2077 2085 2057 1962 1894 1896 1965 2013 2138 2232 2330 2270 2364 2416 2507 2491 2474 2436 2486 2294 2378 2080 2204 2164 2282 2456 1912 1895 2120 1990 2075 2425 2090 2304 2268 2325 2362 2394 2466 2285 2456 2216 2087 2182 2058 2045 1900 2102 2488 2509 2244 2292 2289 2208 2434 2605 2484 2176 1312 1333 1383 1529 1771 2203 2101 2064 2426 2280 2184 2169 2175 2055 2054 1836 2111 2049 2062 2086 2099 2057 2033
1701 1800 1783 1959 1971 2034 2041 1957 1896 1916 1956 1995 2059 2022 2394 2601 2157 2431 2551 2551 2450 2305 2331 2206 1948 1864 2111 1919 2315 2286 2183 2130 2268 2035 2276 2696 2423 2190 2273 2223 2532 2528 2590 2447 2219 2250 2088 2137 2306 2418 2214 2337 2312 2281 2153 2216 2295 2120 2452 2752 2178 1220 1248 1282 1457 1701 1890 1972 1997 2287 2376 2126 1921 2122 1878 1790 2144 2089 1996 1971 2049 2189 2196 2107 1705
1492 1682 1817 1861 1931 1946 1980 1942 1896 1920 1925 1994 2016 2030 2352 2355 2220 2130 2557 2492 2181 2161 2344 2314 2358 2117 2150 2350 2681 2603 2116 2090 2052 2684 3058 3079 2565 2148 2239 2111 2580 2524 2624 2717 2185 2363 2355 2196 2276 2254 2350 2291 2814 2165 2406 2212 2078 2354 2652 2269 1257 1240 1273 1306 1470 1712 1686 1865 2072 2303 2219 1997 1872 2060 2078 1833 1765 1992 2091 2119 2094 2056 1904 2057 1756
1291 1494 1748 1928 1896 1913 1927 1921 1894 1889 1936 1979 1960 1953 2052 2129 2062 2070 2297 2294 2142 2445 1969 2020 1829 1860 2137 2323 2131 2040 2149 2218 2569 2742 2970 2453 2630 2244 2177 2111 2540 2474 2574 2611 2325 2145 2476 2515 2184 2157 2292 2895 2198 2084 2140 1966 2436 2668 2063 1418 1270 1242 1196 1264 1375 1433 1468 1752 1659 2202 1892 1755 2012 1910 1794 1943 1952 1936 1981 2180 2103 1984 2050 1717 1780
1107 1254 1554 1817 1859 1912 1783 1870 1860 1864 1907 1897 1870 1782 1758 1700 1871 2027 1954 1963 1891 1894 1715 1753 1826 1889 1939 1962 1941 2003 2020 2108 2064 2326 2894 2201 2647 2632 2523 2289 2122 2170 2805 2872 2736 2493 2424 2193 2321 2709 2664 2395 2149 2070 1992 2010 1899 1448 1383 1343 1234 1117 1184 1261 1396 1322 1512 1985 1840 2181 2152 2136 2206 2136 2263 2116 2235 2198 2232 2140 1956 1912 2065 1978 1993
1030 1141 1407 1622 1791 1747 1677 1692 1745 1775 1821 1802 1728 1673 1698 1721 1944 1939 1826 1760 1733 1739 1717 1636 1804 1787 1861 1876 1915 1938 1905 1934 2016 2024 2090 2093 2062 2209 2360 2407 2496 2654 2779 2590 2573 2680 2555 2401 2483 2479 2360 2484 2198 2092 1905 1747 1632 1397 1499 1412 1293 1188 1173 1229 1210 1368 1538 1753 2088 2402 2326 2261 2278 2032 2216 2162 2333 2296 2277 2114 2168 2153 1989 2001 2057
1049 1129 1296 1497 1561 1578 1585 1605 1639 1709 1762 1740 1699 1736 1790 1836 1863 1750 1705 1699 1686 1700 1724 1618 1738 1778 1791 1934 1818 1825 1947 2011 1984 1946 2026 2060 2180 2299 2352 2372 2263 2132 2284 2260 2147 2059 2323 2462 2396 2416 2386 2327 2284 2064 2715 1996 1427 1360 1418 1503 1386 1248 1160 1148 1290 1434 1504 1701 2435 2537 2509 2468 2340 2169 2224 2396 2271 2210 2190 2206 2195 2127 2174 2117 2048
1029 1046 1333 1384 1402 1496 1469 1520 1551 1659 1727 1726 1715 1814 1826 1835 1745 1705 1718 1694 1604 1671 1714 1658 1644 1695 1782 1888 1658 1772 1914 2018 1959 1916 2004 2033 2089 2154 2171 2142 2021 1885 1978 1781 1939 2053 2109 2286 2200 2318 2330 2350 2176 2197 2126 1861 1443 1307 1282 1510 1508 1304 1307 1294 1338 1412 1438 1723 2333 2634 2504 2309 2188 2245 2291 2266 2271 2365 2328 2262 2142 2198 2232 2136 1943
935 1012 1189 1281 1467 1358 1337 1426 1491 1598 1664 1654 1697 1756 1823 1809 1735 2229 1749 1701 1587 1626 1638 1706 1688 1651 1862 2268 1790 1766 1874 1909 1824 1868 1917 1952 1973 1931 1854 1839 1869 1934 2065 2182 2118 1975 2043 2084 2230 2283 2398 2405 2389 2081 2060 1906 1886 1265 1254 1572 1556 1448 1407 1388 1334 1354 1428 1678 2209 2370 2396 2169 2234 2266 2201 2352 2436 2298 2226 2182 2161 2244 2198 2058 1936
845 956 1082 1193 1310 1401 1283 1347 1449 1550 1601 1599 1661 1701 1764 1758 1942 1741 1551 2186 1542 1588 1624 1772 1804 1949 2116 2125 2005 1704 1762 1697 1714 1793 1785 1802 1762 1738 1775 1822 1840 1883 2022 2118 2291 2230 2084 2078 2111 2254 2220 2219 2236 2264 2183 2170 1998 1759 1100 1472 1607 1561 1471 1487 1469 1424 1532 1701 2020 2440 2365 2217 2218 2216 2121 2160 2208 2198 2168 2219 2028 2032 2055 1802 1820
785 880 987 1108 1236 1303 1253 1288 1415 1504 1516 1571 1632 1670 1727 1673 1880 1623 1751 1948 1516 1533 1550 1693 1843 1804 1933 1897 1820 1606 1558 1514 1650 1659 1675 1691 1701 1805 1852 1928 1989 1960 2083 2110 2051 2058 2016 1949 2046 2131 1679 1923 1926 1876 2352 1968 1996 1797 1465 1291 1516 1633 1658 1578 1533 1591 1717 1820 1946 2148 2420 2279 2300 2333 2194 2136 2155 2016 1995 1920 2143 2019 1717 1841 1634
742 815 901 1009 1231 1223 1231 1282 1358 1503 1462 1526 1597 1627 1670 1641 1787 1619 1796 1702 1427 1487 1498 1544 1727 1774 1812 1976 1578 1742 1482 1550 1633 1665 1701 1693 1696 1768 1864 1944 2009 2070 2055 2076 1969 1961 1876 1851 1790 2100 2352 2482 2551 2313 2161 1809 1805 1732 1702 1259 1305 1601 1634 1612 1570 1579 1701 1889 1971 2074 2324 2391 2323 2396 2386 2293 2127 2171 1983 2020 1910 1951 1939 1856 1736
713 759 814 923 1108 1165 1182 1252 1328 1370 1403 1466 1543 1553 1589 1617 1716 1679 1590 1779 1440 1402 1477 1419 1524 1679 1763 1921 1695 1800 1991 1625 1693 1732 1733 1758 1745 1707 1775 1817 1884 1979 2060 2053 1754 1449 2133 2122 2184 2275 2436 2558 2607 2127 2027 1730 1635 1616 1543 1474 1157 1566 1626 1598 1647 1678 1777 1886 1978 2026 2164 2415 2705 2441 2282 2258 2337 2254 2235 2200 1994 1994 1932 1880 1888
678 722 746 878 1030 1101 1169 1233 1272 1337 1355 1415 1492 1478 1530 1582 1650 1681 1546 1788 1528 1367 1428 1443 1401 1440 1667 1866 1871 1718 2361 1540 1681 1764 2313 1818 1828 1737 1680 1632 1592 1596 1552 1598 1876 2151 2280 2167 2263 2434 2327 2258 1835 1646 1771 1602 1517 1522 1410 1368 1132 1378 1624 1616 1710 1699 1740 1876 1976 2076 2142 2417 2785 2925 2506 2526 2520 2352 2282 2278 2135 2063 2016 1929 1852
639 662 693 859 999 1064 1150 1228 1247 1294 1310 1350 1422 1393 1442 1486 1574 1658 1661 1667 1620 1412 1376 1414 1443 1333 1585 1810 1824 1864 2086 1509 1536 1657 1831 1713 1733 1767 1625 1310 1221 1344 1860 2446 2334 2172 2302 2270 2900 1929 2933 2200 1764 1584 1518 1338 1369 1407 1322 1122 969 1233 1578 1608 1672 1701 1717 1802 1999 2071 2176 2271 2436 2653 2837 2831 2587 2477 2471 2397 2373 2281 2195 2047 2033
625 607 707 838 1080 1056 1139 1218 1331 1260 1402 1260 1347 1293 1310 1364 1450 1579 1610 1559 1622 1525 1357 1331 1347 1223 1509 1701 1754 1848 2033 1726 1547 1607 1672 1619 1580 1557 1610 1606 1502 2203 2469 2284 2170 2306 2152 2322 2703 1830 1845 2019 1700 2405 1409 1105 1140 1176 1137 991 928 960 1545 1605 1592 1650 1695 1805 1918 2011 2145 2249 2378 2456 2584 2700 2821 2882 2769 2514 2513 2464 2390 2368 2260
673 613 718 826 972 1072 1184 1169 1213 1223 1224 1178 1238 1206 1182 1239 1302 1518 1569 1549 1562 1554 1407 1283 1247 1091 1459 1629 1718 1734 2028 1802 1710 1820 1844 1721 1504 1554 1660 1740 2107 2332 2325 2157 2217 2031 2386 2559 2774 1843 1600 1749 1981 1069 1581 1236 1020 990 925 896 876 1216 1435 1592 1578 1614 1627 1675 1831 1958 2036 2176 2239 2330 2695 2727 2632 2650 2622 2701 2628 2653 2592 2580 2501
727 672 741 843 950 1062 1209 1137 1184 1185 1180 1092 1097 1095 1063 1090 1156 1284 1435 1530 1500 1489 1357 1237 1190 1171 1420 1566 1660 1667 1904 1775 1744 1806 1753 1566 1560 1646 1716 1900 2462 2188 2212 2003 1874 2140 2211 2571 2523 2683 1525 1463 1116 1146 786 1119 1060 957 782 814 808 1120 1354 1599 1571 1552 1625 1552 1648 1720 1861 1975 2122 2521 2625 2591 2555 2518 2360 2482 2622 2741 2772 2733 2649
760 757 780 861 941 1035 1158 1129 1149 1161 1168 1059 993 1002 946 960 991 1116 1337 1428 1474 1419 1305 1203 1221 1276 1349 1290 1406 1495 2105 1857 1723 1618 1396 1502 1603 1711 1859 2154 2215 2123 2165 2061 1881 1740 2324 2499 2296 2461 2156 1744 1592 1427 1106 709 864 905 737 778 795 859 1175 1458 1607 2069 1697 1613 1549 1611 1704 1747 1888 2041 2245 2347 2332 2328 2315 2348 2482 2657 2690 2697 2755
738 810 833 894 933 1005 1132 1125 1137 1138 1162 1035 934 922 865 872 916 1014 1135 1273 1382 1414 1379 1162 1153 1473 1394 1262 1212 1349 2536 1980 1946 1646 1335 2074 1939 1822 2078 2188 2195 2066 2040 1905 1775 2815 2635 2612 2580 2106 2040 2562 2354 2217 1873 1058 605 651 691 730 783 738 936 1115 1699 1908 1979 1594 1549 1674 1459 1663 1672 1787 1941 2059 2121 2196 2179 2129 2107 2112 2140 2048 2381
697 802 870 934 955 986 1102 1134 1130 1144 1169 1070 888 890 828 828 902 1038 1111 1176 1223 1266 1317 1176 1370 1573 1638 1473 1398 1428 2230 2142 2030 1834 1525 2031 1841 1897 2122 2144 2202 2020 1948 1780 1836 2251 2520 2447 2417 2864 2015 2557 2241 2456 1975 1615 667 503 1168 933 731 734 747 1020 1327 1530 1944 1806 1680 1967 1932 1701 1652 1706 1751 1887 1976 2035 2020 1971 1944 1890 1805 1800 2002
639 759 870 958 973 995 1082 1115 1130 1143 1142 1071 884 841 793 805 929 1003 967 973 1002 1038 1096 1239 1582 1684 1782 1666 1642 1696 2059 2215 2203 1910 1701 2508 1879 1911 2078 2151 2153 2097 1986 1772 1726 2319 2612 2498 2491 2934 2795 1550 1542 1350 709 471 659 579 586 641 704 691 1052 1547 966 1108 1428 1839 1786 1878 2064 2014 1908 1758 1891 1850 1955 2003 1973 1860 1782 1690 1669 1655 1709
559 690 837 949 962 956 1032 1084 1123 1146 1107 1062 931 827 787 848 924 921 879 851 954 1119 1115 1384 1655 1834 1866 1883 1943 1864 1982 2110 2393 1934 1705 2032 1854 1967 2106 2158 2126 2111 1971 1961 1994 2995 2976 2589 2387 2237 2372 2289 1820 2001 1228 86 493 476 492 452 576 520 1228 2435 1361 1019 1081 1383 1682 1788 1809 1919 1945 1914 1869 1926 2020 2011 2033 1947 1815 1746 1658 1606 1659
501 636 788 925 934 903 952 1025 1086 1130 1083 1046 996 854 853 880 919 908 834 836 813 1045 1054 1392 1834 1830 1906 2015 2167 1926 1924 2016 2373 2119 1726 1834 1795 1913 2097 2211 2196 2247 2356 1965 2183 2857 2831 2580 2257 2083 2060 2163 2582 2486 1177 974 453 622 447 511 209 299 744 282 407 713 887 981 1138 1384 1602 1766 1896 1998 2036 2074 2086 2111 2055 2015 1928 1776 1656 1577 1570
398 560 726 883 914 865 882 948 1012 1040 1001 969 1006 939 848 869 906 830 765 696 719 1092 1188 1419 1718 1819 1943 2046 2174 1979 1889 2014 2270 2275 2071 1910 1714 1823 1938 2151 2286 2209 1965 1754 1919 2542 2757 2515 2159 2611 2343 1838 1505 1684 2294 1191 561 333 397 329 72 94 309 400 62 314 133 494 644 852 1210 1546 1753 1811 1914 2006 1977 2076 2093 2059 2068 1958 1787 1740 1642
320 478 652 803 857 856 838 880 924 947 851 865 944 958 844 818 824 766 611 526 798 987 1115 1270 1617 1940 1966 2012 2134 2090 1958 2038 2238 2413 2420 2010 1728 1701 1811 2031 2074 2039 1948 1668 1856 2221 2666 2555 2136 2251 2436 2036 1504 1562 1910 2305 1047 687 386 211 139 274 229 120 40 465 87 266 100 132 599 1224 1393 1545 1749 1694 1711 1868 1876 1950 2069 2016 1942 1812 1706
288 406 565 712 779 824 819 828 849 843 762 790 889 876 812 798 730 646 488 330 618 942 1090 1203 1464 1897 2181 2006 2073 2149 2087 2122 2242 2438 2580 2167 1876 1665 1671 1990 2139 2194 2194 1952 1880 1994 2264 2434 2028 1949 2270 2587 2326 1479 1605 1748 2249 2158 964 538 655 684 554 594 340 701 87 916 670 617 276 647 1004 1201 1270 1213 1244 1422 1740 1872 1949 2004 1993 1935 1853
269 347 481 610 686 750 788 786 766 747 695 687 786 807 806 793 644 32 50 198 407 698 978 1144 1383 1708 2036 2036 2071 2169 2189 2238 2365 2450 2514 2478 2060 1917 1742 1795 2198 2223 2617 2121 2168 2274 2280 2385 2041 1806 1996 2677 2290 1766 1510 1602 1417 1806 1968 1710 1578 1668 979 794 869 5 332 136 45 123 227 87 298 562 631 666 716 827 1100 1383 1642 1698 1780 1782 1845
255 289 418 511 603 685 735 753 714 578 424 391 705 792 814 625 18 2 11 21 103 265 695 1042 1280 1720 1944 2093 2077 2184 2272 2346 2452 2466 2487 2508 2175 2052 1994 1900 2022 2325 2681 2376 2250 2252 2373 2357 2329 1807 1880 2776 2168 1700 1446 1412 1328 1270 2558 2355 1824 1756 1312 1037 915 301 169 99 280 73 44 99 80 140 280 252 276 423 544 846 1061 1216 1396 1371 1480
211 263 378 455 527 598 672 715 666 558 396 388 548 810 561 148 63 0 4 17 22 187 590 1057 1338 1875 1844 1948 2068 2132 2281 2412 2452 2511 2458 2475 2685 2028 1828 1806 1899 2158 3146 2778 2310 2249 2303 2342 2360 2284 2064 2303 2182 2116 1875 1587 1192 1218 1136 923 931 898 664 448 430 181 350 161 262 2 182 209 87 193 153 105 149 247 406 534 631 860 1149 1304 1172
178 265 284 374 451 507 601 651 619 503 396 369 425 774 754 317 77 4 0 0 162 330 692 1008 1275 1627 1736 1859 2020 2105 2246 2367 2466 2488 2458 2498 2671 2477 2030 1988 2119 2118 2875 2977 2617 2467 2386 2358 2295 2150 1989 2128 2097 2390 2249 2029 1277 1058 1406 1542 1193 736 196 43 61 112 12 10 130 197 76 310 535 576 165 149 314 269 364 430 533 610 854 1097 1059
437 175 241 244 286 382 536 617 640 623 465 366 390 707 723 686 432 24 2 0 7 178 620 927 1196 1467 1600 1720 1922 2068 2166 2317 2389 2463 2483 2537 2601 2709 2450 2134 2202 2715 3014 2942 2878 2663 2497 2417 2397 2253 2326 2229 2132 2336 2864 2528 1915 1659 1847 2021 1891 1223 788 117 134 243 295 251 155 106 276 693 378 455 686 657 1045 542 344 419 450 416 642 727 948
Wind_Speed
11 9 9 9 8 10 11 12 12 12 13 11 10 9 7 5 5 5 5 5 5 5 5 5 5 5 5 5 4 4 3 3 2 2 2 2 2 2 1 1 1 2 1 2 3 3 4 4 3 6 7 8 9 10 10 9 9 8 8 8 7 7 6 5 7 7 6 6 5 4 4 4 4 6 5 4 5 7 6 5 4 4 3 2 4
11 10 8 9 9 8 11 10 10 10 10 9 8 8 7 6 5 4 4 4 4 4 4 4 5 4 5 4 4 4 4 3 2 2 2 2 2 2 1 1 2 2 3 4 5 4 3 5 4 5 7 8 9 10 10 10 8 8 8 8 8 8 7 6 6 6 6 5 6 5 5 5 4 6 6 5 4 6 4 5 3 3 3 3 3
7 7 7 8 7 8 10 11 10 9 9 8 7 6 6 6 5 5 4 4 3 3 4 4 3 3 4 4 4 4 4 3 3 2 2 2 2 1 1 1 2 3 3 4 4 2 3 7 7 8 8 9 10 10 10 8 7 9 8 7 8 9 8 7 6 7 10 9 6 7 6 4 4 6 5 3 3 5 5 4 2 2 1 3 2
9 7 7 9 9 7 12 10 9 8 8 8 6 6 6 5 4 4 3 3 3 2 2 1 1 2 2 3 3 3 3 2 2 2 2 1 1 1 1 1 1 3 4 5 4 4 5 5 6 7 9 10 9 9 9 8 6 8 8 7 9 10 9 9 9 7 8 7 7 4 4 3 2 4 4 4 5 5 5 4 3 2 3 2 3
7 7 7 7 7 9 10 10 9 8 8 7 6 6 6 5 4 4 3 3 1 1 1 1 1 2 1 1 2 2 2 1 2 1 1 1 0 0 1 2 1 2 2 2 1 3 3 4 6 7 9 10 9 7 8 7 6 6 5 6 9 8 9 9 7 4 6 9 8 6 5 4 5 2 3 5 4 4 4 2 2 2 3 2 1
7 7 7 7 7 10 8 9 9 9 8 8 6 6 5 5 4 4 3 2 2 2 2 2 3 3 2 2 2 2 2 1 0 0 0 1 1 3 1 1 3 4 3 3 1 1 3 3 5 7 7 9 10 8 7 6 5 4 4 6 7 8 10 8 4 6 9 9 8 9 8 7 5 4 5 4 3 4 3 2 1 2 2 2 2
7 7 7 7 7 7 7 8 9 8 8 7 6 6 6 6 5 5 4 4 4 3 3 3 2 3 3 2 2 2 2 1 1 1 0 1 2 3 4 3 4 4 3 3 4 2 1 2 4 3 4 6 11 11 10 7 6 4 3 4 6 7 8 2 4 8 9 9 9 9 8 6 6 5 5 6 5 4 3 1 1 1 1 1 2
6 7 7 7 7 5 6 7 8 8 7 7 7 7 6 6 5 5 4 5 5 4 3 2 2 1 1 2 2 1 1 0 1 3 4 2 4 3 2 4 3 3 2 3 3 1 1 5 5 2 3 5 8 10 7 6 4 3 2 5 7 6 2 0 5 8 10 11 10 10 9 9 7 5 3 5 4 3 1 0 0 1 1 2 2
7 7 6 6 5 7 6 7 8 8 7 6 6 6 5 5 5 5 5 6 6 5 3 2 2 1 1 0 1 0 2 3 4 4 3 4 7 2 2 3 4 3 2 2 2 1 3 5 5 6 9 10 8 7 8 6 3 2 4 5 3 1 0 3 6 10 11 12 11 10 10 11 10 5 0 2 2 2 1 1 1 1 2 2 2
6 5 5 5 4 7 8 8 8 8 7 6 5 5 4 4 5 5 6 6 5 4 3 3 3 1 0 1 1 1 2 3 4 4 3 5 6 4 2 3 3 3 2 1 1 2 4 5 8 10 8 8 8 8 7 6 3 5 6 6 6 5 3 6 9 10 12 12 11 10 10 9 10 6 2 1 1 2 2 2 4 3 3 2 3
5 5 5 4 4 7 8 8 8 8 7 6 5 5 4 4 5 5 5 4 4 4 4 4 3 1 1 2 2 2 3 4 5 5 3 4 6 5 3 3 2 1 1 4 5 3 5 6 8 11 8 8 9 7 8 8 11 9 8 9 6 4 6 9 11 12 12 12 13 14 11 10 10 8 2 1 2 2 2 1 1 1 2 2 3
5 6 5 5 5 6 7 8 8 8 7 6 6 5 5 5 4 4 3 3 3 4 4 4 2 1 3 4 4 4 3 4 4 3 2 2 6 5 3 2 5 5 5 1 2 2 2 1 4 7 10 8 10 10 8 8 7 8 7 6 5 6 8 10 11 13 13 13 14 15 14 12 10 5 1 1 0 1 1 1 1 1 2 3 3
5 5 5 4 4 7 6 8 8 7 7 7 6 5 4 4 3 3 2 2 3 4 4 4 2 1 2 4 4 3 3 3 3 2 1 1 3 3 2 1 2 7 5 1 2 1 1 1 3 6 6 7 8 8 8 6 6 7 5 5 5 6 8 10 12 13 14 15 16 15 14 13 8 4 1 0 2 1 1 1 1 1 2 3 3
4 5 5 4 6 6 7 5 6 7 7 7 6 5 4 3 3 3 3 3 4 4 4 3 3 1 1 2 3 3 2 2 2 2 2 1 1 0 1 1 5 5 4 2 2 0 1 2 1 3 6 7 6 6 7 6 5 4 3 4 4 5 7 9 12 14 15 16 16 15 14 12 8 5 2 2 1 0 1 1 2 2 2 3 4
3 3 3 4 5 5 6 6 6 8 7 6 6 5 4 3 3 4 4 4 4 4 4 4 3 2 1 2 1 2 3 4 2 2 3 2 1 3 3 5 4 5 2 1 2 3 2 0 2 3 5 5 7 8 7 6 6 5 4 3 3 4 6 11 13 15 15 15 15 13 12 11 4 4 2 1 0 0 1 1 2 2 3 4 5
3 3 3 4 4 5 5 4 5 7 7 6 5 5 4 4 4 5 4 5 5 5 4 4 3 2 2 2 0 2 1 2 3 2 4 4 4 3 5 5 4 3 1 1 3 4 1 3 1 2 2 4 4 4 5 5 5 4 3 2 3 2 4 8 12 14 14 13 12 12 12 7 3 2 1 1 1 1 2 2 3 4 5 5 6
3 2 2 3 2 5 4 4 7 10 7 6 5 4 4 5 5 5 5 6 6 5 6 5 4 4 4 3 2 2 1 3 3 4 5 5 5 5 6 5 3 2 2 3 4 2 4 4 1 0 2 4 4 5 6 6 5 4 3 4 3 2 3 6 10 12 12 10 11 11 10 8 3 1 1 1 2 2 3 4 5 6 6 7 6
3 2 2 2 2 4 4 5 9 7 7 5 5 5 5 6 6 6 7 7 7 7 7 7 6 5 5 4 4 2 4 4 4 5 6 6 3 6 7 5 3 3 3 3 4 5 3 5 4 2 3 3 3 3 4 5 4 2 3 3 4 3 4 6 9 10 9 9 10 9 9 3 2 1 1 2 3 4 4 5 5 6 6 7 7
3 2 2 2 2 3 4 6 7 8 7 7 7 7 7 7 6 7 8 8 9 9 8 9 7 6 6 5 5 4 7 5 5 5 7 7 4 5 6 5 4 4 3 4 2 3 5 5 5 4 1 3 5 5 5 5 5 4 3 2 4 4 6 7 9 10 9 9 9 9 7 5 3 2 3 4 4 5 5 5 5 6 7 8 8
4 2 2 2 2 3 5 6 7 8 7 7 8 9 9 8 7 8 9 10 10 9 9 8 9 6 7 6 6 11 6 8 6 8 9 5 5 6 5 5 4 4 4 4 3 1 1 4 4 3 1 3 3 4 3 5 6 4 2 1 2 5 7 8 8 9 9 8 8 9 6 4 4 5 5 5 4 4 5 5 6 8 9 9 9
4 2 2 3 3 5 5 6 8 8 7 8 9 10 10 9 9 10 10 11 9 8 10 9 8 7 9 7 9 12 11 10 12 12 11 10 7 6 6 5 4 4 4 3 0 1 2 2 3 4 4 3 5 4 4 7 8 7 4 2 0 6 7 7 8 8 9 9 8 8 7 6 6 6 5 5 4 7 7 8 9 10 10 12 11
3 4 4 3 4 6 6 6 8 8 8 9 10 10 11 9 11 12 13 11 10 9 11 12 11 11 9 11 13 12 12 10 13 13 16 12 10 6 6 5 5 4 4 2 1 1 0 1 3 3 4 4 6 10 9 7 9 8 6 4 8 8 9 7 7 7 10 10 9 10 8 5 6 7 7 7 9 9 10 11 12 12 12 13 12
3 4 5 4 5 5 6 6 7 8 7 9 10 11 11 11 12 11 11 10 11 12 13 13 13 11 12 13 13 13 13 13 13 12 13 9 10 7 5 5 5 4 4 2 2 1 1 2 3 4 5 7 9 10 10 12 11 6 7 11 12 11 10 9 9 9 10 11 11 11 9 6 7 10 13 11 13 13 13 14 14 14 14 14 13
5 5 4 6 5 5 5 7 7 8 8 9 10 11 12 11 11 11 11 11 12 13 13 13 14 13 13 13 13 13 13 14 11 10 13 15 14 10 8 7 6 5 6 8 6 3 4 5 5 7 10 10 11 11 11 12 12 15 15 15 14 14 14 14 13 12 11 12 13 12 10 11 13 15 16 16 17 16 16 16 16 15 15 14 13
6 5 5 5 5 5 6 7 8 9 8 9 9 11 12 11 11 11 11 12 12 14 14 14 14 14 13 13 12 13 13 14 14 14 15 15 14 14 14 14 12 11 9 9 9 9 9 9 11 10 11 11 11 12 13 13 14 15 16 16 16 16 17 17 16 15 14 15 16 15 16 18 19 21 20 19 19 19 18 17 17 17 16 15 13
6 6 5 4 5 6 6 7 8 9 9 9 9 10 10 10 10 10 10 11 12 13 14 14 14 14 13 13 13 12 13 13 14 14 15 14 14 14 14 13 12 12 12 10 11 11 11 12 12 11 13 13 12 14 14 14 14 15 16 16 16 17 18 19 19 18 18 19 19 20 20 21 22 22 22 21 21 20 19 18 18 17 16 15 14
6 6 6 5 5 5 6 7 7 9 9 9 9 10 11 11 10 10 9 10 12 13 14 15 15 14 14 14 13 13 13 13 13 13 14 14 13 14 14 14 13 12 13 13 13 14 14 14 14 14 14 13 13 14 15 15 15 15 15 16 17 17 18 18 20 20 20 20 21 20 22 22 22 23 23 23 22 21 20 20 19 18 18 17 16
5 6 6 5 5 4 5 6 8 8 10 9 9 10 11 11 11 9 9 10 11 13 14 14 14 14 14 14 14 13 12 12 12 12 14 13 14 14 14 14 14 14 15 15 16 17 17 16 17 17 17 16 15 15 15 15 14 14 15 15 16 17 17 18 19 20 20 20 21 21 22 24 24 24 24 23 22 21 20 19 19 18 18 17 16
3 5 7 6 6 4 4 6 8 8 10 9 9 10 10 11 10 10 9 9 11 12 13 14 14 14 14 13 13 12 12 12 11 12 12 13 14 14 15 15 16 16 16 17 18 18 18 18 18 18 18 17 16 16 15 15 15 14 14 14 15 17 17 18 20 20 20 20 21 23 23 25 24 24 23 22 21 20 19 19 18 18 17 17 16
3 3 6 8 7 6 5 6 8 9 9 8 9 10 10 10 10 10 10 10 11 12 12 13 14 14 13 12 12 11 12 11 11 12 11 12 13 14 15 16 16 17 16 18 18 18 19 19 19 20 19 19 18 17 16 15 15 15 14 14 14 16 17 18 20 20 20 19 20 22 24 23 24 23 22 21 20 19 18 18 17 17 18 17 17
3 3 6 8 8 6 7 8 9 8 8 8 9 9 9 10 10 10 11 10 11 12 13 13 14 13 12 11 10 10 11 11 11 11 11 11 12 14 15 16 18 17 16 18 18 19 19 20 21 21 21 20 19 18 16 15 14 14 14 14 14 14 16 17 19 20 20 19 20 21 23 24 23 22 21 20 19 19 19 18 18 17 18 18 18
2 3 6 8 7 6 7 9 9 9 8 7 9 9 9 9 10 11 11 11 11 12 13 13 13 12 12 11 10 9 10 10 10 10 10 10 11 13 14 16 18 18 18 18 18 18 19 20 20 21 22 21 19 17 16 15 15 15 14 14 14 15 15 17 18 19 19 19 19 20 20 22 23 21 20 19 18 18 18 18 18 18 18 18 19
5 3 4 7 6 6 8 9 9 9 7 7 9 9 9 9 10 11 11 11 12 12 12 13 12 12 11 10 9 9 9 10 10 10 9 9 10 11 15 15 17 18 18 18 18 17 16 18 18 20 19 18 18 17 17 17 15 15 15 16 16 17 16 17 18 19 19 19 19 19 19 19 19 20 20 18 19 18 18 18 18 18 18 19 19
5 5 3 5 8 8 10 11 9 9 8 8 8 9 9 9 10 11 11 11 12 12 12 12 11 11 10 10 9 9 8 9 9 9 8 9 9 11 14 15 16 16 16 15 15 14 15 16 17 18 19 18 18 17 16 17 17 16 17 17 17 18 17 18 19 19 19 19 18 18 18 17 16 16 16 18 18 19 19 19 19 19 19 19 20
5 4 2 3 7 8 10 12 9 9 8 8 9 9 8 8 9 11 11 11 12 12 12 11 11 10 9 9 8 8 7 8 8 7 8 8 9 11 13 14 14 14 13 13 12 13 13 14 16 16 18 17 16 17 16 17 17 18 18 18 18 17 16 17 17 19 19 18 17 17 17 16 15 14 14 14 16 18 20 21 21 20 20 20 20
3 3 2 3 6 8 9 10 9 8 9 9 9 8 8 8 9 10 11 11 11 12 12 11 10 9 8 8 8 8 6 6 7 7 7 9 9 11 13 13 12 11 12 11 11 12 13 13 15 16 16 18 17 16 15 15 17 18 18 18 17 16 15 15 16 17 17 16 16 15 15 15 14 13 14 14 14 16 20 21 22 21 21 21 21
4 4 3 2 6 9 8 9 8 7 8 9 9 8 8 8 8 9 9 10 11 12 11 11 10 9 8 7 7 7 5 5 6 6 7 8 9 11 12 11 9 9 11 12 12 13 13 14 15 16 17 17 17 16 14 14 15 18 17 18 17 16 15 14 14 14 14 15 14 14 13 13 14 16 15 16 16 15 17 21 21 22 22 22 21
4 3 2 1 3 8 10 11 10 8 8 8 9 9 8 8 9 9 10 10 11 10 10 9 9 9 8 7 6 7 5 6 5 6 6 8 9 10 10 9 8 9 10 12 13 13 14 14 16 17 18 17 17 14 14 14 15 16 17 17 17 16 15 13 13 13 13 13 12 13 12 11 12 12 14 16 17 17 17 18 21 22 23 22 22
4 3 3 2 3 8 11 11 11 10 9 8 9 9 8 8 9 9 10 11 11 10 9 8 8 7 7 6 5 7 6 6 5 5 6 7 8 9 9 8 9 9 10 11 13 13 13 14 15 17 17 16 15 15 14 14 15 16 17 17 16 16 15 14 13 13 12 13 12 12 11 11 11 12 13 15 16 16 17 17 17 18 18 21 22
4 3 4 3 3 8 11 13 13 11 11 10 9 10 9 8 8 10 11 12 11 10 9 8 7 6 6 5 5 6 7 6 6 6 6 6 7 8 7 8 8 8 9 10 12 13 12 13 15 16 17 13 13 13 12 10 12 13 16 17 16 15 16 14 13 13 13 13 12 12 12 10 10 12 13 13 13 15 16 16 17 17 18 20 21
4 3 4 3 3 6 10 11 13 12 12 11 10 10 10 10 11 9 10 10 10 10 9 8 7 6 5 5 4 5 5 6 6 6 6 7 7 7 7 7 8 8 8 10 11 11 11 11 13 14 13 12 11 12 11 10 8 11 12 13 16 14 15 14 13 12 13 13 12 12 11 11 11 12 12 12 13 14 16 16 17 17 18 18 18
4 4 3 4 3 6 9 12 15 14 12 12 11 11 10 9 9 9 9 9 9 8 9 9 7 5 3 3 4 4 5 6 6 6 7 7 7 8 8 7 7 9 9 10 11 11 10 10 11 11 11 9 9 11 11 nan 10 9 9 11 13 14 13 11 11 11 12 13 12 12 11 12 13 12 10 10 12 14 16 16 16 17 17 18 19
3 4 3 4 4 5 10 13 15 14 13 12 12 10 10 8 7 8 7 9 10 8 7 7 5 3 3 3 4 4 5 6 6 6 6 8 8 8 9 9 8 9 10 11 11 11 10 9 9 9 10 8 8 9 11 10 8 9 7 8 11 13 13 11 10 10 11 12 12 13 12 13 14 11 9 9 10 13 15 16 16 17 18 19 19
3 3 4 4 4 6 11 12 15 15 13 12 10 10 8 8 8 6 6 7 7 8 9 10 7 5 5 5 5 5 5 6 7 6 6 7 8 9 9 10 10 9 9 10 11 12 10 9 9 7 7 8 8 9 9 9 7 6 9 9 nan nan 13 12 nan 12 9 11 13 13 12 13 12 10 8 9 10 12 14 15 17 17 18 19 20
2 2 3 3 4 5 10 11 14 14 13 11 8 7 7 7 7 9 9 11 13 11 10 9 7 7 7 6 6 5 6 7 8 7 6 7 8 8 9 10 10 10 9 10 10 11 10 9 8 7 7 7 7 9 8 6 6 8 4 7 10 9 9 12 nan 13 nan 11 12 14 13 13 12 10 9 9 9 11 13 15 16 17 18 19 20
2 2 3 3 4 7 10 12 15 16 13 11 8 6 6 6 6 7 8 9 9 9 7 6 7 6 6 7 7 7 7 8 8 7 7 6 7 8 8 9 10 10 10 10 11 11 10 10 8 8 7 6 6 6 8 8 6 6 6 6 8 7 11 11 11 14 nan 10 14 14 12 12 11 10 9 10 11 11 12 14 15 17 17 19 19
2 3 4 2 3 6 8 10 14 15 13 12 9 8 7 8 7 nan nan 7 6 8 7 7 5 6 6 5 6 7 7 7 7 7 6 6 6 7 7 8 9 8 10 9 10 11 11 10 8 7 6 4 5 6 8 9 8 6 6 6 8 10 8 10 13 nan 14 14 nan 14 14 nan 12 10 10 11 12 12 12 13 15 16 17 18 19
2 3 4 4 2 4 8 9 14 14 12 11 10 9 7 8 nan nan nan nan 7 6 5 6 7 7 6 6 6 7 7 8 7 6 6 6 5 6 6 6 7 7 8 10 10 10 10 10 9 7 5 5 4 4 8 8 7 8 6 6 7 9 11 11 8 11 11 nan 18 nan nan nan nan 10 10 12 12 13 13 12 14 15 17 18 18
3 2 4 5 3 5 7 10 13 14 12 9 9 9 8 8 nan nan nan nan nan 7 7 7 6 7 6 8 7 7 8 8 7 6 5 5 5 5 5 6 6 7 8 8 9 8 9 10 9 7 6 4 4 4 5 8 6 8 7 8 7 9 11 12 10 10 10 10 15 nan 17 16 nan 11 11 11 12 12 12 12 13 15 16 18 17
3 2 3 6 4 5 6 8 12 15 12 9 8 8 8 8 nan nan nan nan 8 9 8 6 6 6 6 7 7 8 8 7 7 6 5 5 4 5 5 5 6 6 7 8 7 8 9 9 9 8 6 6 4 4 6 7 5 7 7 7 8 10 12 nan nan 9 nan nan 12 16 nan 16 16 16 12 12 13 12 11 11 13 15 16 16 16
4 4 2 3 4 3 3 6 10 15 13 10 8 7 8 7 6 nan nan nan nan 8 8 8 8 7 7 7 7 8 7 7 7 7 6 5 4 4 4 5 5 5 6 6 7 7 8 8 8 7 6 6 5 5 6 6 5 6 7 8 8 9 11 14 14 11 11 12 14 15 16 14 14 16 14 13 13 12 10 10 13 14 14 15 14
Wind_Direction
65 65 76 64 14 355 344 334 330 325 320 322 323 324 322 316 304 296 295 290 288 287 293 299 305 310 303 306 314 321 328 335 342 349 353 25 45 51 86 111 112 106 72 19 0 2 343 299 287 299 301 303 305 304 299 291 286 283 282 278 269 265 269 260 246 254 259 257 273 293 305 275 285 265 253 264 267 264 280 263 228 154 143 247 276
35 59 63 73 21 350 341 336 326 323 323 324 328 330 331 332 335 334 326 314 311 315 317 321 319 311 311 319 334 343 1 17 28 16 24 47 63 67 62 55 56 40 16 7 10 10 322 293 328 321 322 320 316 310 300 292 292 291 280 272 265 261 260 252 251 257 258 254 251 247 269 297 275 278 266 235 232 253 245 260 239 128 113 270 279
27 45 63 60 33 1 359 335 332 329 328 329 333 339 345 351 353 349 343 340 345 345 336 330 323 322 336 353 10 30 41 40 42 47 59 81 84 93 84 82 40 22 7 6 1 351 347 343 347 339 332 333 322 311 295 285 272 265 257 266 269 256 245 244 243 255 247 237 237 270 284 284 282 270 271 281 257 267 270 268 243 159 112 281 293
12 41 56 47 36 52 8 340 332 331 333 335 345 359 8 9 6 1 358 360 6 3 352 337 326 348 3 23 39 49 59 61 64 51 44 52 83 118 127 83 46 13 4 358 343 7 4 353 360 347 338 327 319 311 307 306 284 273 265 258 252 240 237 231 228 234 235 237 237 213 119 126 179 256 255 256 262 269 281 270 247 263 287 307 300
12 29 51 59 59 51 5 341 334 334 339 347 3 17 22 20 17 16 17 26 46 78 127 113 82 75 57 51 77 78 80 70 58 78 137 141 162 228 158 72 253 206 204 208 3 347 4 6 15 2 343 324 306 312 313 301 288 263 250 249 247 248 240 220 220 233 244 230 216 168 140 144 131 239 249 255 257 271 272 284 266 288 289 286 304
18 30 52 65 64 55 358 343 338 338 347 356 14 29 30 34 32 31 27 40 56 63 78 91 113 132 145 154 130 104 77 88 127 311 235 73 293 242 176 305 328 333 337 315 317 307 25 14 35 19 347 321 317 324 320 320 314 307 270 247 254 250 241 230 195 226 218 208 190 140 146 148 146 133 270 271 282 289 289 247 254 271 293 305 347
13 41 54 62 70 45 354 345 344 346 354 0 18 30 29 34 32 33 30 33 37 43 58 78 119 148 154 144 112 94 93 65 15 272 295 50 268 302 345 330 309 291 253 237 259 310 83 59 59 17 326 343 334 340 340 344 325 306 297 270 263 251 240 214 222 223 201 165 141 143 141 162 148 134 287 298 308 305 291 293 257 273 304 6 18
34 50 56 63 73 16 354 350 349 353 360 7 18 27 30 30 30 33 37 36 38 44 47 72 103 118 144 139 112 85 62 294 330 334 345 329 292 269 268 305 287 273 271 235 247 258 303 12 23 288 273 343 352 339 336 335 310 293 269 235 226 232 261 347 235 220 194 155 149 147 143 139 141 126 276 300 309 314 346 31 48 334 345 358 10
39 52 61 65 56 353 354 349 352 356 3 11 20 26 28 29 33 41 41 39 35 40 42 57 67 73 87 100 129 213 304 331 358 331 310 303 278 310 279 294 295 302 301 286 295 309 9 23 337 329 351 346 350 349 345 327 351 262 207 207 197 114 346 232 210 195 163 150 156 152 155 146 138 133 103 317 334 351 8 62 48 347 358 3 354
49 73 78 82 65 359 353 350 353 359 5 10 15 20 24 29 38 42 40 38 38 38 46 53 52 52 147 216 219 242 284 303 282 275 273 270 278 281 298 240 248 247 201 214 217 48 15 21 326 342 359 351 347 347 357 338 353 18 6 7 6 4 262 218 200 175 154 156 159 160 153 152 137 125 96 14 7 36 58 75 83 76 62 357 339
66 86 96 92 61 2 357 351 352 360 5 6 9 14 22 29 40 49 50 42 45 49 51 53 57 69 211 216 213 217 234 261 272 282 287 277 293 293 255 228 185 151 160 66 29 350 349 347 327 319 342 359 345 343 354 360 358 10 359 356 335 280 225 206 176 150 153 156 158 150 156 159 134 121 98 45 43 53 54 55 30 18 2 341 344
52 96 104 100 24 5 6 357 357 1 4 6 9 16 22 36 42 51 59 57 59 59 59 66 72 155 202 203 207 208 214 250 258 262 261 274 270 255 233 204 158 141 66 99 205 229 214 232 305 320 347 0 343 345 348 5 359 350 351 337 286 239 214 197 159 150 152 156 155 148 143 140 136 123 133 44 76 82 67 30 11 10 7 360 352
71 100 110 115 94 13 22 8 2 4 4 7 13 20 25 35 45 52 65 73 69 71 72 82 99 149 207 198 204 193 204 232 245 222 157 307 274 267 232 200 83 83 105 160 210 220 207 213 348 358 354 358 8 345 346 2 351 341 345 312 264 231 207 189 152 155 153 155 150 147 144 139 138 143 167 55 43 61 86 53 6 7 7 1 350
55 103 112 112 107 22 14 25 12 12 10 9 15 23 21 28 40 42 56 62 70 73 82 85 93 114 194 201 193 176 197 234 213 176 94 313 274 301 14 23 65 74 77 359 339 75 300 351 45 7 357 2 10 356 355 345 355 331 336 306 264 224 202 169 160 153 154 153 149 147 144 136 132 135 94 53 46 326 29 20 7 12 1 2 4
41 77 87 106 100 95 17 23 22 15 17 15 18 25 19 23 34 39 50 60 72 74 86 83 86 89 105 145 185 146 185 185 166 115 109 82 68 62 54 45 50 61 62 75 325 345 4 248 347 8 351 355 6 4 349 347 342 338 324 289 246 206 182 138 143 148 150 150 146 145 139 134 143 120 101 76 126 328 7 20 12 3 9 15 22
54 58 61 103 113 126 119 45 39 29 28 23 31 32 26 29 38 43 45 58 66 68 71 83 80 69 80 98 139 114 157 153 137 105 91 89 76 82 78 73 63 67 121 182 216 197 288 354 349 342 18 11 10 350 341 344 332 316 307 294 260 222 186 146 140 145 147 148 143 136 130 124 132 101 58 355 324 23 29 24 19 14 20 29 39
60 71 48 84 100 117 128 107 86 34 32 36 41 41 42 43 48 46 54 58 59 66 66 70 69 69 66 71 66 82 49 80 79 97 101 100 84 88 90 80 76 115 156 190 210 216 195 138 110 14 24 20 25 5 356 351 340 337 313 290 278 245 204 166 143 144 145 149 140 133 128 122 117 88 352 345 6 16 30 33 30 28 33 42 60
84 71 68 71 93 95 91 87 71 86 96 64 49 48 54 51 49 52 57 64 66 66 67 68 68 75 79 78 79 48 85 75 82 95 94 85 68 80 81 90 123 140 161 219 202 191 153 158 147 109 51 50 46 32 16 1 0 340 308 284 273 251 220 185 148 147 152 151 142 136 129 127 122 70 13 24 29 34 33 36 39 44 48 67 74
113 91 85 31 41 80 102 107 108 111 118 122 119 85 54 55 52 55 63 71 72 71 73 79 82 84 88 92 100 55 64 80 93 98 95 79 69 93 106 132 134 144 158 229 209 207 164 153 157 112 63 52 47 41 36 24 16 11 339 303 269 246 218 166 156 153 155 147 142 140 138 140 104 56 47 44 37 37 42 40 55 65 73 82 84
132 121 94 113 124 129 123 124 122 120 122 129 120 103 74 60 64 66 73 79 78 78 79 88 92 105 102 124 123 112 95 90 86 94 89 122 118 105 113 118 128 131 154 190 187 179 150 174 149 137 49 36 68 68 69 60 56 33 8 321 241 209 156 144 155 157 151 156 147 136 139 123 78 62 53 47 45 63 52 57 68 81 88 92 88
133 114 122 132 150 146 127 126 122 121 128 131 128 110 97 72 84 78 80 83 89 101 99 95 100 109 111 99 114 120 124 115 112 111 115 109 117 116 112 114 106 126 143 154 131 175 185 196 134 147 151 156 118 96 48 61 58 43 25 21 117 111 123 135 140 147 145 145 144 136 141 117 117 96 70 55 46 59 68 80 84 89 93 93 90
109 131 132 134 156 138 123 125 124 125 130 130 122 112 107 111 127 115 112 111 100 94 108 116 121 127 112 116 117 114 116 104 103 110 113 119 117 120 117 110 123 135 119 131 150 48 259 44 120 132 136 133 131 98 87 55 50 38 34 44 75 77 98 113 126 131 134 132 130 127 121 90 70 77 67 63 68 72 86 93 97 97 94 91 92
103 131 141 136 144 139 129 131 127 124 126 125 120 117 121 123 124 119 117 113 114 114 120 122 127 122 117 117 115 116 116 111 105 103 106 112 108 109 96 109 106 102 92 117 101 73 94 94 89 114 129 133 105 97 89 91 84 73 66 72 74 74 80 89 102 113 118 118 116 110 91 83 80 76 77 77 85 92 96 97 95 97 97 97 98
120 129 138 148 137 125 121 132 124 120 121 123 122 120 121 118 117 122 126 127 124 123 121 120 121 120 115 114 115 117 118 117 110 119 122 120 119 127 134 127 119 119 147 126 132 132 142 137 147 137 117 106 103 100 95 89 82 81 78 75 71 71 78 80 86 93 102 109 106 110 104 94 92 93 95 92 96 96 97 98 98 98 97 99 102
130 147 148 134 123 115 125 133 132 124 122 120 115 115 115 114 116 121 126 128 125 124 121 119 116 116 114 114 115 118 119 117 117 116 116 117 116 117 117 116 111 111 114 107 103 105 111 114 114 116 112 112 105 99 97 89 82 81 80 77 75 72 72 75 80 84 91 97 100 97 96 95 96 96 95 95 96 98 100 101 100 98 98 100 102
138 134 122 130 109 109 120 135 135 130 125 118 111 101 107 110 111 113 121 127 126 124 122 117 115 114 112 112 116 118 117 115 115 115 115 114 115 111 110 105 104 102 99 96 99 102 106 108 110 110 110 109 101 93 90 85 79 81 80 79 78 76 77 79 81 83 85 89 95 96 97 97 94 96 98 98 98 100 101 100 100 99 98 98 102
122 132 135 139 128 115 132 145 136 136 133 121 117 112 115 110 111 110 115 123 125 125 123 120 117 114 113 110 112 111 109 107 110 111 113 110 110 107 102 99 94 91 92 92 99 99 101 104 106 107 110 110 102 95 87 84 84 79 80 79 81 82 83 84 84 85 86 87 93 89 94 93 95 96 98 98 100 100 101 101 101 101 103 105 102
139 142 136 128 132 113 136 141 143 140 135 123 121 120 118 113 103 106 117 112 121 124 123 120 116 113 108 107 105 104 99 102 102 107 106 107 107 102 96 95 93 88 87 88 93 95 97 98 103 107 110 108 102 93 86 85 85 84 78 81 82 85 87 88 89 87 88 90 94 92 93 95 96 97 98 99 99 101 102 104 103 105 107 101 97
118 130 146 138 136 137 136 140 143 143 140 128 121 121 118 117 115 121 115 111 123 122 120 119 116 110 107 100 97 99 101 99 100 100 101 105 104 102 98 95 96 95 93 92 89 93 95 96 98 101 105 104 102 96 92 88 87 86 80 79 82 84 87 89 91 90 91 94 97 100 92 95 96 98 101 102 102 103 104 104 104 103 101 99 98
105 134 150 147 145 156 138 137 141 146 141 125 125 120 117 114 118 118 116 121 122 123 122 121 117 109 106 98 96 93 95 94 98 98 97 100 101 102 102 101 100 97 93 93 91 89 91 89 90 93 98 102 103 101 96 91 87 85 83 80 83 84 88 89 91 92 94 97 102 104 98 97 99 101 102 104 106 106 105 104 104 101 100 99 99
160 125 147 152 151 151 142 145 142 133 143 122 119 118 119 116 118 120 122 130 128 127 128 125 118 110 105 101 91 88 88 92 93 94 98 97 99 98 100 102 102 99 94 92 92 89 87 86 88 89 93 96 98 100 98 96 92 89 87 83 84 87 90 93 95 96 96 99 103 106 111 104 101 104 104 106 107 109 111 110 108 104 101 98 97
142 116 147 160 155 143 142 144 140 138 132 118 114 115 116 118 120 121 123 130 130 131 130 127 119 113 109 104 91 83 80 84 85 93 95 96 96 101 103 104 101 102 101 98 97 94 90 89 86 86 88 91 98 101 101 100 97 96 93 91 91 91 92 93 94 95 98 101 105 110 113 116 110 104 105 105 106 109 110 110 108 104 100 98 97
163 152 156 158 151 149 147 142 143 140 126 115 112 115 123 121 123 122 122 128 129 133 130 125 122 116 111 106 94 81 82 77 82 88 97 102 103 101 104 101 102 104 103 101 99 99 97 98 98 95 92 94 97 101 103 104 102 98 97 96 97 96 97 95 96 97 97 101 106 110 114 116 118 115 106 104 107 105 105 104 103 101 98 97 97
189 171 165 145 162 161 155 152 144 137 122 120 117 118 119 123 128 127 124 130 130 131 129 129 125 119 114 107 94 80 79 81 81 94 109 111 113 110 107 108 105 103 103 103 99 99 102 102 103 104 103 101 97 93 96 100 103 101 97 96 96 96 98 99 101 103 105 106 111 115 116 117 117 115 118 112 104 103 103 101 99 97 97 96 96
199 183 114 143 168 171 162 154 148 142 125 117 110 113 121 124 127 128 126 130 133 132 131 133 127 124 122 111 97 84 74 73 82 94 111 118 118 115 115 109 111 107 104 100 93 100 101 100 102 107 104 104 101 94 91 94 96 94 94 95 94 95 97 99 103 105 107 110 113 113 114 113 112 111 112 110 113 110 107 102 99 98 97 97 98
225 196 184 169 169 178 170 160 157 144 127 118 112 116 117 123 129 128 132 129 134 131 130 130 130 130 123 113 103 94 78 73 82 99 115 122 122 118 117 119 113 113 110 104 102 105 103 102 105 97 101 107 107 105 98 92 94 94 96 95 96 95 96 99 100 102 104 108 107 107 107 106 106 108 102 103 104 104 103 101 100 99 99 99 100
240 228 210 185 171 180 173 167 160 140 132 122 121 125 130 124 126 127 129 130 129 127 130 136 134 129 121 112 106 98 88 77 86 103 116 122 123 121 123 121 123 119 119 119 115 110 108 110 109 109 100 96 98 102 101 94 94 97 98 97 97 97 96 97 98 100 104 100 102 101 101 99 98 94 95 96 98 101 100 97 100 101 99 100 101
246 259 241 254 181 187 180 170 164 154 146 133 124 127 130 131 130 129 131 126 124 128 131 133 127 127 122 111 107 97 90 79 89 105 116 121 123 123 127 130 135 138 131 126 120 115 114 112 110 107 102 96 96 104 102 94 95 95 98 99 101 101 101 102 103 102 101 102 103 100 99 102 99 98 98 98 99 99 98 96 96 98 98 98 97
233 275 256 225 198 191 188 173 169 161 152 142 136 137 146 144 142 137 131 127 133 131 132 127 125 127 118 113 109 96 92 85 95 108 114 121 128 126 129 139 147 148 139 127 123 120 116 114 110 106 102 99 98 98 99 92 90 95 97 100 103 105 110 112 110 109 108 107 106 104 105 101 100 100 101 102 102 100 97 97 99 99 99 98 99
238 254 264 246 210 193 189 182 175 167 164 155 149 150 153 149 145 151 143 135 135 135 132 126 131 123 118 108 99 91 95 98 104 111 113 119 117 114 125 142 150 149 138 124 117 124 117 117 114 113 112 109 112 104 102 96 101 99 98 104 102 104 104 103 105 106 109 106 103 105 101 100 97 100 103 106 106 104 101 101 102 102 102 101 101
233 267 271 268 241 199 195 182 178 174 168 159 155 156 157 163 165 151 141 139 139 139 137 134 128 126 114 104 94 92 96 103 109 109 104 105 106 113 127 141 149 145 132 119 124 125 126 120 115 113 116 113 114 113 107 99 94 110 116 113 114 103 101 95 92 98 97 99 99 96 98 98 97 99 104 109 109 109 107 106 107 107 106 108 108
205 245 278 289 269 219 196 186 183 176 171 161 160 161 160 160 171 160 166 158 148 143 137 131 125 131 121 108 105 104 102 106 114 109 108 101 107 112 118 126 138 139 136 138 133 130 135 133 128 122 120 112 108 110 107 nan 114 96 103 114 118 117 106 101 100 98 96 96 93 92 91 90 92 94 99 104 109 110 110 111 110 108 107 107 107
281 284 289 280 279 229 201 193 183 179 174 170 171 163 158 164 173 174 175 170 148 141 133 132 140 146 146 138 135 123 116 119 118 114 110 105 104 110 114 126 132 134 134 137 135 126 136 141 145 132 125 118 110 103 105 99 98 103 109 121 128 133 125 127 115 109 106 103 99 92 90 89 88 89 90 98 106 108 108 108 106 105 105 104 102
272 277 293 306 270 215 206 200 187 180 179 177 172 169 161 161 171 187 176 172 154 158 172 176 173 185 162 159 156 141 131 131 127 122 121 111 103 102 115 118 120 123 124 125 128 121 130 136 139 136 127 117 121 113 115 109 99 94 116 122 nan nan 137 131 nan 125 133 115 99 92 90 89 88 86 85 92 102 105 106 105 103 103 102 100 97
312 275 281 289 252 225 206 209 195 182 180 180 176 177 172 169 181 187 188 185 184 187 187 177 168 165 173 158 139 143 138 138 135 128 125 112 109 108 106 111 113 117 123 120 118 116 121 125 123 126 129 118 118 115 115 123 119 103 77 116 125 133 127 125 nan 126 nan 123 108 100 93 91 90 91 91 95 101 100 103 102 101 100 97 95 92
335 262 259 293 286 232 209 206 200 189 180 178 179 176 157 157 175 195 190 178 184 183 165 155 165 161 141 156 157 141 140 143 142 135 130 128 111 104 104 106 110 114 115 114 116 118 115 113 110 113 122 123 125 133 121 123 123 98 91 103 111 135 142 140 145 134 nan 125 119 107 98 94 92 91 94 103 100 99 97 98 97 95 94 92 91
347 262 252 280 310 254 222 212 205 197 185 176 177 171 172 168 166 nan nan 175 173 158 159 161 154 145 160 157 142 144 139 143 143 140 133 127 121 110 106 106 108 111 115 118 114 110 112 112 119 116 118 131 138 132 117 114 128 109 97 108 125 141 150 154 140 nan 141 132 nan 126 121 nan 107 102 104 105 101 97 93 93 93 93 92 90 89
335 271 256 249 302 257 231 217 206 202 192 184 178 167 174 183 nan nan nan nan 157 157 165 165 160 163 159 145 158 144 147 149 149 140 135 131 125 113 111 114 109 114 113 109 110 116 117 117 114 118 128 128 128 125 116 117 105 111 118 120 129 147 155 154 141 128 128 nan 130 nan nan nan nan 107 107 104 96 92 92 89 90 90 90 88 87
1 312 255 238 235 228 225 215 206 205 198 194 187 172 180 195 nan nan nan nan nan 175 183 181 174 170 153 158 153 153 159 158 147 139 134 132 126 114 110 112 111 113 115 121 120 118 111 114 117 124 126 128 120 119 121 107 103 96 129 135 141 150 157 157 147 143 131 132 122 nan 125 126 nan 117 113 110 106 100 94 91 87 86 86 87 86
3 306 247 233 232 221 220 219 204 201 201 200 195 188 188 203 nan nan nan nan 178 189 191 185 178 174 156 155 156 164 165 156 144 137 139 138 134 135 126 109 107 118 123 122 127 120 117 115 116 120 129 118 122 103 96 107 110 132 132 134 143 149 154 nan nan 148 nan nan 125 129 nan 132 136 129 135 124 112 106 101 96 90 86 87 89 90
354 350 318 241 236 234 228 218 201 200 204 203 203 200 200 207 211 nan nan nan nan 195 193 183 186 181 165 163 171 163 169 157 157 146 142 150 150 146 138 124 124 125 125 129 121 119 117 114 117 115 113 109 121 114 109 112 133 134 133 132 134 136 140 142 143 148 145 137 139 133 130 124 122 135 130 133 121 117 105 97 91 90 89 95 96